Weather History for Mandan, ND

Change the Weather History Date:

Tuesday, March 18, 2014

  Actual Average (KBIS) Record (KBIS)
Temperature  
Mean Temperature 32 °F 31 °F  
Max Temperature 39 °F 41 °F 79 °F (2012)
Min Temperature 26 °F 20 °F -20 °F (1875)
Degree Days  
Heating Degree Days 32 34  
Month to date heating degree days 686  
Since 1 July heating degree days 7117  
Cooling Degree Days 0 0  
Month to date cooling degree days 0  
Year to date cooling degree days 0  
Moisture  
Dew Point 29 °F    
Average Humidity 87    
Maximum Humidity 100    
Minimum Humidity 56    
Precipitation  
Precipitation 0.00 in 0.03 in 0.52 in (1968)
Month to date precipitation 0.46  
Year to date precipitation 1.40  
Snow  
Snow 0.00 in 0.30 in 5.20 in (1886)
Month to date snowfall 5.6  
Since 1 July snowfall 43.1  
Snow Depth -    
Sea Level Pressure  
Sea Level Pressure 29.85 in    
Wind  
Wind Speed 11 mph (NNW)    
Max Wind Speed 21 mph    
Max Gust Speed 28 mph    
Visibility 9 miles    
Events      
T = Trace of Precipitation, MM = Missing Value Source: NWS Daily Summary

Daily Weather History Graph

Daily Weather History Graph

Search for Another Location

Airport:

Trip Planner

Search our weather history database for the weather conditions in past years. The results will help you decide how hot, cold, wet, or windy it might be!

Date:

Astronomy

Mar. 18, 2014 Rise Set
Actual Time 7:50 AM CDT 7:53 PM CDT
Civil Twilight 7:20 AM CDT 8:23 PM CDT
Nautical Twilight 6:44 AM CDT 8:59 PM CDT
Astronomical Twilight 6:08 AM CDT 9:35 PM CDT
Moon 10:23 PM CDT (3/18) 8:32 AM CDT (3/18)
Length of Visible Light 13h 03m
Length of Day
12h 03m
Waning Gibbous, 96% of the Moon is Illuminated
Mar 18
Waning Gibbous
Mar 23
Last Quarter
Mar 30
New
Apr 7
First Quarter
Apr 15
Full

Hourly Weather History & Observations

Time (CDT) Temp. Windchill Dew Point Humidity Pressure Visibility Wind Dir Wind Speed Gust Speed Precip Events Conditions
12:15 AM 32.0 °F 24.2 °F 32.0 °F 100% 29.65 in 10.0 mi ENE 9.2 mph - N/A   Overcast
12:35 AM 32.0 °F 24.2 °F 32.0 °F 100% 29.66 in 10.0 mi NE 9.2 mph - N/A   Overcast
12:55 AM 32.0 °F 24.2 °F 32.0 °F 100% 29.66 in 10.0 mi NE 9.2 mph - N/A   Overcast
1:15 AM 32.0 °F 23.6 °F 30.2 °F 93% 29.67 in 10.0 mi NE 10.4 mph - N/A   Overcast
1:35 AM 32.0 °F 22.5 °F 30.2 °F 93% 29.68 in 10.0 mi NE 12.7 mph - N/A   Overcast
1:55 AM 32.0 °F 24.2 °F 30.2 °F 93% 29.69 in 9.0 mi NE 9.2 mph - N/A   Overcast
2:15 AM 32.0 °F 23.6 °F 30.2 °F 93% 29.70 in 8.0 mi NE 10.4 mph - N/A   Overcast
2:35 AM 32.0 °F 23.6 °F 30.2 °F 93% 29.71 in 8.0 mi NE 10.4 mph - N/A   Overcast
2:55 AM 32.0 °F 24.2 °F 30.2 °F 93% 29.72 in 8.0 mi NE 9.2 mph - N/A   Overcast
3:15 AM 32.0 °F 23.6 °F 30.2 °F 93% 29.73 in 7.0 mi NNE 10.4 mph - N/A   Overcast
3:35 AM 32.0 °F 24.8 °F 30.2 °F 93% 29.74 in 7.0 mi NNE 8.1 mph - N/A   Overcast
3:55 AM 32.0 °F 24.8 °F 28.4 °F 87% 29.74 in 7.0 mi NE 8.1 mph - N/A   Overcast
4:15 AM 30.2 °F 20.8 °F 28.4 °F 93% 29.73 in 8.0 mi NNE 11.5 mph - N/A   Overcast
4:35 AM 30.2 °F 19.8 °F 28.4 °F 93% 29.73 in 7.0 mi NNE 13.8 mph - N/A   Overcast
4:55 AM 28.4 °F 17.5 °F 28.4 °F 100% 29.73 in 7.0 mi North 13.8 mph - N/A   Overcast
5:15 AM 30.2 °F 20.2 °F 28.4 °F 93% 29.74 in 7.0 mi North 12.7 mph - N/A   Overcast
5:35 AM 30.2 °F 20.2 °F 28.4 °F 93% 29.75 in 9.0 mi North 12.7 mph - N/A   Overcast
5:55 AM 30.2 °F 20.2 °F 28.4 °F 93% 29.75 in 8.0 mi North 12.7 mph - N/A   Overcast
6:15 AM 30.2 °F 19.8 °F 28.4 °F 93% 29.76 in 8.0 mi North 13.8 mph 18.4 mph N/A   Overcast
6:35 AM 30.2 °F 19.8 °F 28.4 °F 93% 29.76 in 9.0 mi NNW 13.8 mph - N/A   Overcast
6:55 AM 30.2 °F 19.8 °F 28.4 °F 93% 29.78 in 8.0 mi NNW 13.8 mph - N/A   Overcast
7:15 AM 30.2 °F 20.8 °F 28.4 °F 93% 29.78 in 10.0 mi NNW 11.5 mph - N/A   Overcast
7:35 AM 30.2 °F 21.3 °F 28.4 °F 93% 29.79 in 8.0 mi North 10.4 mph - N/A   Overcast
7:55 AM 30.2 °F 21.3 °F 28.4 °F 93% 29.80 in 9.0 mi North 10.4 mph - N/A   Overcast
8:15 AM 30.2 °F 22.6 °F 28.4 °F 93% 29.80 in 6.0 mi North 8.1 mph - N/A   Overcast
8:35 AM 30.2 °F 20.2 °F 28.4 °F 93% 29.81 in 5.0 mi North 12.7 mph - N/A   Overcast
8:55 AM 30.2 °F 19.8 °F 28.4 °F 93% 29.82 in 5.0 mi North 13.8 mph - N/A   Overcast
9:15 AM 30.2 °F 20.2 °F 28.4 °F 93% 29.82 in 6.0 mi North 12.7 mph - N/A   Overcast
9:35 AM 30.2 °F 20.2 °F 28.4 °F 93% 29.83 in 7.0 mi North 12.7 mph - N/A   Overcast
9:55 AM 32.0 °F 23.0 °F 28.4 °F 87% 29.84 in 6.0 mi NNW 11.5 mph - N/A   Overcast
10:15 AM 32.0 °F 23.6 °F 28.4 °F 87% 29.85 in 6.0 mi North 10.4 mph - N/A   Overcast
10:35 AM 32.0 °F 24.8 °F 28.4 °F 87% 29.86 in 6.0 mi NNW 8.1 mph - N/A   Overcast
10:55 AM 32.0 °F 23.6 °F 28.4 °F 87% 29.87 in 7.0 mi NNW 10.4 mph - N/A   Overcast
11:15 AM 32.0 °F 24.2 °F 28.4 °F 87% 29.87 in 9.0 mi North 9.2 mph - N/A   Overcast
11:35 AM 32.0 °F 24.8 °F 28.4 °F 87% 29.88 in 8.0 mi North 8.1 mph - N/A   Overcast
11:55 AM 32.0 °F 25.6 °F 30.2 °F 93% 29.88 in 7.0 mi NNW 6.9 mph - N/A   Overcast
12:15 PM 32.0 °F 24.2 °F 28.4 °F 87% 29.88 in 8.0 mi NW 9.2 mph - N/A   Overcast
12:35 PM 32.0 °F 22.5 °F 28.4 °F 87% 29.88 in 9.0 mi NNW 12.7 mph - N/A   Overcast
12:55 PM 32.0 °F 22.5 °F 30.2 °F 93% 29.88 in 9.0 mi NNW 12.7 mph - N/A   Overcast
1:15 PM 33.8 °F 24.8 °F 30.2 °F 87% 29.88 in 8.0 mi NNW 12.7 mph - N/A   Overcast
1:35 PM 32.0 °F 20.5 °F 32.0 °F 100% 29.89 in 6.0 mi NW 18.4 mph 21.9 mph N/A   Overcast
1:55 PM 32.0 °F 21.2 °F 32.0 °F 100% 29.90 in 5.0 mi NW 16.1 mph - N/A   Overcast
2:15 PM 32.0 °F 21.6 °F 30.2 °F 93% 29.90 in 9.0 mi NNW 15.0 mph 23.0 mph N/A   Overcast
2:35 PM 33.8 °F 23.9 °F 30.2 °F 87% 29.90 in 10.0 mi NW 15.0 mph - N/A   Overcast
2:55 PM 33.8 °F 24.3 °F 32.0 °F 93% 29.89 in 10.0 mi NNW 13.8 mph - N/A   Overcast
3:15 PM 35.6 °F 25.9 °F 32.0 °F 87% 29.89 in 10.0 mi NNW 16.1 mph 21.9 mph N/A   Overcast
3:35 PM 35.6 °F 25.5 °F 32.0 °F 87% 29.88 in 10.0 mi NNW 17.3 mph 21.9 mph N/A   Overcast
3:55 PM 37.4 °F 26.9 °F 30.2 °F 75% 29.88 in 10.0 mi NNW 20.7 mph 26.5 mph N/A   Overcast
4:15 PM 37.4 °F 27.5 °F 32.0 °F 81% 29.89 in 10.0 mi NNW 18.4 mph 25.3 mph N/A   Overcast
4:35 PM 35.6 °F 24.5 °F 30.2 °F 81% 29.89 in 10.0 mi NW 20.7 mph 26.5 mph N/A   Overcast
4:55 PM 35.6 °F 24.8 °F 30.2 °F 81% 29.91 in 10.0 mi NW 19.6 mph 27.6 mph N/A   Overcast
5:15 PM 35.6 °F 26.2 °F 30.2 °F 81% 29.91 in 10.0 mi NNW 15.0 mph - N/A   Overcast
5:35 PM 37.4 °F 28.2 °F 30.2 °F 75% 29.91 in 10.0 mi NNW 16.1 mph - N/A   Overcast
5:55 PM 37.4 °F 28.9 °F 28.4 °F 70% 29.91 in 10.0 mi NNW 13.8 mph - N/A   Overcast
6:15 PM 39.2 °F 30.8 °F 24.8 °F 56% 29.92 in 10.0 mi NNW 15.0 mph - N/A   Overcast
6:35 PM 37.4 °F 28.2 °F 26.6 °F 65% 29.92 in 10.0 mi NNW 16.1 mph 24.2 mph N/A   Mostly Cloudy
6:55 PM 37.4 °F 28.5 °F 26.6 °F 65% 29.93 in 10.0 mi North 15.0 mph - N/A   Overcast
7:15 PM 37.4 °F 28.9 °F 26.6 °F 65% 29.94 in 10.0 mi NNW 13.8 mph - N/A   Overcast
7:35 PM 35.6 °F 26.6 °F 26.6 °F 70% 29.95 in 10.0 mi NNW 13.8 mph - N/A   Overcast
7:55 PM 35.6 °F 25.5 °F 26.6 °F 70% 29.96 in 10.0 mi NNW 17.3 mph 23.0 mph N/A   Overcast
8:15 PM 35.6 °F 27.1 °F 26.6 °F 70% 29.96 in 10.0 mi NNW 12.7 mph - N/A   Overcast
8:35 PM 35.6 °F 27.5 °F 28.4 °F 75% 29.97 in 10.0 mi NNW 11.5 mph - N/A   Overcast
8:55 PM 33.8 °F 27.0 °F 28.4 °F 81% 29.98 in 10.0 mi NNW 8.1 mph - N/A   Overcast
9:15 PM 33.8 °F 25.8 °F 28.4 °F 81% 29.98 in 10.0 mi NNW 10.4 mph - N/A   Overcast
9:35 PM 32.0 °F 23.0 °F 28.4 °F 87% 29.98 in 10.0 mi NNW 11.5 mph - N/A   Mostly Cloudy
9:55 PM 32.0 °F 24.2 °F 28.4 °F 87% 29.98 in 10.0 mi NNW 9.2 mph - N/A   Mostly Cloudy
10:15 PM 32.0 °F 24.8 °F 28.4 °F 87% 29.98 in 10.0 mi NNW 8.1 mph - N/A   Overcast
10:35 PM 32.0 °F 25.6 °F 26.6 °F 80% 29.99 in 10.0 mi NW 6.9 mph - N/A   Mostly Cloudy
10:55 PM 28.4 °F 21.2 °F 26.6 °F 93% 29.99 in 10.0 mi NW 6.9 mph - N/A   Mostly Cloudy
11:15 PM 26.6 °F 19.1 °F 24.8 °F 93% 29.99 in 10.0 mi NW 6.9 mph - N/A   Scattered Clouds
11:35 PM 26.6 °F 20.0 °F 24.8 °F 93% 29.99 in 10.0 mi NW 5.8 mph - N/A   Clear
11:55 PM 26.6 °F 19.1 °F 24.8 °F 93% 29.98 in 10.0 mi WNW 6.9 mph - N/A   Clear